Regional Weather Roundup
Issued by NWS Mt. Holly, NJ

Home | Current Version | Previous Version | Text Only | Print | Product List | Glossary On
Versions: 1 2 3 4 5 6 7 8 9 10 11 12 13 14 15 16 17 18 19 20 21 22 23 24 25 26 27 28 29 30 31 32 33 34 35 36 37 38 39 40 41 42 43 44 45 46 47 48 49 50
000
ASUS41 KPHI 100912
RWRPHI

REGIONAL WEATHER ROUNDUP
NATIONAL WEATHER SERVICE MOUNT HOLLY NJ
400 AM EST WED FEB 10 2016

NOTE:  "FAIR" INDICATES FEW OR NO CLOUDS BELOW 12,000 FEET WITH NO
SIGNIFICANT WEATHER AND/OR OBSTRUCTIONS TO VISIBILITY.

 * = STATION DOES NOT REPORT PRECIPITATION (E.G. RAIN, SNOW, ETC.)
        OR FOG.

NJZ015>026-101000-
SOUTHERN NEW JERSEY

CITY           SKY/WX    TMP DP  RH WIND       PRES   REMARKS
POMONA         CLOUDY    33  30  88 W8        29.62R FOG     WCI  26
WILDWOOD*      CLOUDY    34  25  69 W13       29.66R WCI  25
MILLVILLE      CLOUDY    32  28  85 W10       29.64R WCI  24
WRIGHTSTOWN    CLOUDY    32  32 100 W7        29.58S WCI  26
MOUNT HOLLY    CLOUDY    31  28  89 W8        29.61S WCI  23
TRENTON        CLOUDY    31  28  89 W5        29.59S FOG     WCI  26

$$
NJZ001>014-101000-
NORTHERN NEW JERSEY

CITY           SKY/WX    TMP DP  RH WIND       PRES   REMARKS
SUSSEX         LGT SNOW  30  27  88 CALM      29.54F FOG
ANDOVER*         N/A     30  28  92 CALM      29.55S
MORRISTOWN     CLOUDY    30  28  93 CALM      29.58S FOG
NEWARK         CLOUDY    32  30  93 SW7       29.59S WCI  26
TETERBORO      LGT SNOW  34  28  80 S6        29.58S FOG     WCI  29
CALDWELL       CLOUDY    31  28  89 SW5       29.58S FOG     WCI  26
SOMERVILLE     CLOUDY    31  29  92 CALM      29.57S FOG
ALLAIRE*       CLOUDY    32  25  74 CALM      29.59S
TOMS RIVER*    CLOUDY    32  28  86 NW6       29.60S WCI  26

$$
PAZ043-044-047-054-055-060>062-066>071-101000-
EASTERN PENNSYLVANIA

CITY           SKY/WX    TMP DP  RH WIND       PRES   REMARKS
PHILADELPHIA   LGT SNOW  32  27  81 W8        29.63S WCI  25
NORTH PHILA    CLOUDY    32  28  85 W12       29.62S FOG     WCI  23
BLUE BELL*       N/A     30  28  93 CALM      29.60S
DOYLESTOWN     CLOUDY    28  27  96 W5        29.58S WCI  23
QUAKERTOWN*    CLOUDY    30  28  93 CALM      29.59R
PERKASIE*      CLOUDY    28  28 100 SW5       29.59R FOG     WCI  23
POTTSTOWN      LGT SNOW  28  27  96 W5        29.62R FOG     WCI  23
LANCASTER      CLOUDY    28  25  88 W12       29.62S WCI  18
COATESVILLE    LGT SNOW  27  28 100 W12       29.61S WCI  16
READING        LGT SNOW  30  25  81 W6        29.60S WCI  24
ALLENTOWN      CLOUDY    30  26  85 SW8       29.58S FOG     WCI  22
MOUNT POCONO   CLOUDY    26  23  88 W9        29.47S WCI  17
HAZLETON       MIX PCPN  28  27  93 W5        29.54S WCI  23
LEHIGHTON      CLOUDY    30  30 100 CALM      29.58S FOG
WILKES BARRE   LGT SNOW  29  27  92 SW7       29.53S FOG     WCI  22

$$
DEZALL-MDZ008-012-015-019-020-101000-
DELAWARE AND EASTERN MARYLAND

CITY           SKY/WX    TMP DP  RH WIND       PRES   REMARKS
WILMINGTON     LGT SNOW  30  26  85 W9        29.65R FOG     WCI  22
DOVER          CLOUDY    32  26  79 W8        29.65R WCI  24
GEORGETOWN     CLOUDY    32  25  75 W6        29.68R WCI  26
EASTON         LGT SNOW  31  28  90 NW9       29.73R WCI  23
PATUXENT       CLOUDY    30  22  72 W17       29.72R WCI  18
OCEAN CITY     CLOUDY    32  26  78 NW6       29.67S WCI  26
WALLOPS ISLAND CLOUDY    33  25  72 W7        29.70R WCI  27
CAMBRIDGE      CLOUDY    30  27  86 W8G16     29.70R WCI  23
SALISBURY      CLOUDY    32  24  72 W12G17    29.68R WCI  23

$$
PAZ001-021-NYZ056-072-MDZ011-DCZ001-101000-
OTHER NEARBY LOCATIONS

CITY           SKY/WX    TMP DP  RH WIND       PRES   REMARKS
HARRISBURG     FLURRIES  30  24  78 W10       29.64R WCI  21
STATE COLLEGE  CLOUDY    27  20  76 W13       29.60S WCI  16
WILLIAMSPORT   CLOUDY    31  22  69 W10       29.58S WCI  22
BINGHAMTON     MOCLDY    26  22  84 W10       29.48S WCI  16
NEW YORK CITY  CLOUDY    33  28  81 CALM      29.60S HAZE
BALTIMORE      LGT SNOW  28  23  81 W13       29.69R WCI  17
WASHINGTON DC  CLOUDY    29  23  78 W7        29.73S WCI  22

$$



USA.gov is the U.S. government's official web portal to all federal, state and local government web resources and services.